一网星座-0159星 (ONEWEB-0159 )

导读

ONEWEB-0159是英国一网公司(OneWeb)低轨宽带卫星星座的组成卫星,于北京时间2021年3月25日发射入轨,运行在约1200公里高度的近地轨道。作为OneWeb全球互联网星座的一员,它承担着为全球偏远地区、基础设施薄弱区域提供低成本高速互联网接入的任务,采用Ku波段提供用户通信服务,单星可产生多个通信波束,是OneWeb构建全球覆盖低轨通信网络的重要节点,助力填补全球数字鸿沟,推动泛在互联实现。

基本信息
目录编号:
48062
目录名称:
ONEWEB-0159
国际标识:
2021-025W
轨道中心:
EARTH
卫星名称:
一网星座-0159星
卫星全名:
一网星座-0159星 (ONEWEB-0159 )
卫星状态:
在轨 (已飞行2000 天)
发射日期:
2021-03-25 UTC
国别 :
英国 (GB)
星等 :
--
该卫星已列入 空间交会检测服务 Space Conjunction Data Service (SCDS) ,当前飞行风险评估等级: 无高风险
轨道信息
数据来源 国际轨道数据 AOE轨道数据
星历时间 2026-09-15T20:54:07+0800
9小时前
查看轨道信息
2026-09-15T23:00:00+0800
7小时前
查看轨道信息
半长轴 7587.905km 7587.909km
偏心率 0.0001654 0.0000903
轨道倾角 87.893° 87.900°
近地点辐角 93.696° 37.915°
升交点赤经 302.246° 302.236°
平近点角 266.436° 15.347°
近地点 1208.512km 1209.086km
远地点 1211.024km 1210.458km
周期 109.633分钟 109.633分钟
每日圈数 13.134695 13.134685
详细信息
平衡模式:
三轴稳定
覆盖范围:
全球
运营商:
一网卫星公司
运营商所在国:
英国
制造商(研发单位):
一网卫星公司
制造商所在国:
英国
使用方式:
暂无
卫星简介
OneWeb卫星网络由648颗重约125公斤的微型卫星组成,运行在1200公里的轨道上。 每颗卫星都能够提供至少每秒8千兆位的吞吐量,以使用其高吞吐量的Ku频段有效载荷为家庭和移动平台提供互联网接入。该卫星仍在工作。
2D轨道图
3D轨道图
轨道高度分析图
轨道倾角分析图
轨道综合分析图
查看轨道综合分析图
交会数据列表
事件ID 空间交会对象 最接近时刻(TCA) 交会距离 交会风险概率(CRP) 交会风险指数(CRI) 操作
CDM_260915-235600-901604-806228
2026-09-15T
23:56:41+0000
1.239 km
极远距离
1.252474E-5 中风险 0.57
与全量物体交会距离演化趋势 订阅飞行安全评估服务
与全量物体交会风险概率演化趋势 订阅飞行安全评估服务